TimeCST,TemperatureF,Dew PointF,Humidity,Sea Level PressureIn,VisibilityMPH,Wind Direction,Wind SpeedMPH,Gust SpeedMPH,PrecipitationIn,Events,Conditions,WindDirDegrees,DateUTC
12:23 AM,50.0,48.2,94,29.83,10.0,West,9.2,-,N/A,,Overcast,260,2013-02-13 06:23:00
12:54 AM,50.0,48.0,93,29.82,10.0,West,11.5,-,N/A,,Overcast,270,2013-02-13 06:54:00
1:10 AM,50.0,46.4,87,29.84,10.0,West,11.5,-,N/A,,Overcast,260,2013-02-13 07:10:00
1:54 AM,50.0,46.0,86,29.83,10.0,West,11.5,-,N/A,,Mostly Cloudy,260,2013-02-13 07:54:00
2:08 AM,48.2,44.6,87,29.83,10.0,West,11.5,17.3,N/A,,Scattered Clouds,260,2013-02-13 08:08:00
2:19 AM,48.2,46.4,93,29.83,10.0,WSW,9.2,-,N/A,,Mostly Cloudy,250,2013-02-13 08:19:00
2:42 AM,48.2,44.6,87,29.84,10.0,West,9.2,-,N/A,,Scattered Clouds,260,2013-02-13 08:42:00
2:54 AM,48.0,45.0,89,29.85,10.0,WSW,8.1,-,N/A,,Partly Cloudy,240,2013-02-13 08:54:00
3:21 AM,48.2,44.6,87,29.87,10.0,WSW,11.5,-,N/A,,Mostly Cloudy,250,2013-02-13 09:21:00
3:54 AM,48.0,44.1,86,29.88,10.0,West,12.7,24.2,N/A,,Overcast,260,2013-02-13 09:54:00
4:54 AM,48.0,44.1,86,29.89,10.0,West,13.8,19.6,N/A,,Overcast,270,2013-02-13 10:54:00
5:54 AM,46.0,42.1,86,29.91,10.0,WNW,10.4,19.6,0.00,,Overcast,290,2013-02-13 11:54:00
6:13 AM,46.4,42.8,87,29.91,10.0,WNW,8.1,-,N/A,,Overcast,290,2013-02-13 12:13:00
6:54 AM,46.0,42.1,86,29.93,10.0,WNW,12.7,-,N/A,,Overcast,290,2013-02-13 12:54:00
7:54 AM,46.0,41.0,83,29.94,10.0,WNW,6.9,-,N/A,,Overcast,290,2013-02-13 13:54:00
8:02 AM,46.4,41.0,81,29.95,10.0,WNW,9.2,-,N/A,,Overcast,290,2013-02-13 14:02:00
8:49 AM,46.4,41.0,81,29.98,10.0,West,10.4,-,N/A,,Overcast,280,2013-02-13 14:49:00
8:54 AM,46.9,41.0,80,29.99,10.0,West,6.9,-,N/A,,Overcast,270,2013-02-13 14:54:00
9:18 AM,46.4,41.0,81,30.00,10.0,WNW,8.1,-,N/A,,Overcast,300,2013-02-13 15:18:00
9:39 AM,48.2,39.2,71,30.00,10.0,West,12.7,18.4,N/A,,Overcast,280,2013-02-13 15:39:00
9:54 AM,48.0,39.9,74,30.00,10.0,NW,11.5,18.4,N/A,,Overcast,310,2013-02-13 15:54:00
10:08 AM,48.2,39.2,71,30.01,10.0,NW,11.5,17.3,N/A,,Overcast,310,2013-02-13 16:08:00
10:19 AM,48.2,39.2,71,30.00,10.0,NW,12.7,20.7,N/A,,Overcast,320,2013-02-13 16:19:00
10:32 AM,46.4,39.2,76,30.00,10.0,NW,11.5,-,N/A,,Overcast,310,2013-02-13 16:32:00
10:45 AM,48.2,39.2,71,30.00,10.0,WNW,10.4,19.6,N/A,,Overcast,300,2013-02-13 16:45:00
10:54 AM,48.0,39.0,71,30.00,10.0,WNW,15.0,24.2,N/A,,Overcast,290,2013-02-13 16:54:00
11:54 AM,50.0,41.0,71,30.00,10.0,NW,9.2,17.3,N/A,,Mostly Cloudy,310,2013-02-13 17:54:00
12:12 PM,50.0,39.2,66,30.00,10.0,WNW,15.0,21.9,N/A,,Mostly Cloudy,300,2013-02-13 18:12:00
12:33 PM,50.0,37.4,62,29.99,10.0,NNW,13.8,-,N/A,,Overcast,330,2013-02-13 18:33:00
12:54 PM,50.0,37.0,61,29.99,10.0,NNW,13.8,23.0,N/A,,Overcast,330,2013-02-13 18:54:00
1:11 PM,48.2,37.4,66,29.99,10.0,NW,12.7,19.6,N/A,,Overcast,320,2013-02-13 19:11:00
1:19 PM,48.2,37.4,66,29.99,10.0,NNW,17.3,21.9,N/A,,Overcast,330,2013-02-13 19:19:00
1:32 PM,48.2,37.4,66,29.99,10.0,NW,11.5,19.6,N/A,,Overcast,320,2013-02-13 19:32:00
1:54 PM,50.0,39.0,66,29.99,10.0,NNW,15.0,18.4,N/A,,Overcast,330,2013-02-13 19:54:00
2:54 PM,48.0,36.0,63,30.00,10.0,NW,10.4,-,N/A,,Overcast,320,2013-02-13 20:54:00
3:54 PM,48.0,37.9,68,30.01,10.0,North,6.9,-,N/A,,Overcast,350,2013-02-13 21:54:00
4:21 PM,46.4,37.4,71,30.02,10.0,North,10.4,-,N/A,,Overcast,360,2013-02-13 22:21:00
4:54 PM,46.9,37.9,71,30.02,10.0,North,9.2,-,N/A,,Overcast,350,2013-02-13 22:54:00
5:54 PM,45.0,37.0,74,30.04,10.0,North,8.1,-,N/A,,Overcast,350,2013-02-13 23:54:00
6:54 PM,42.1,36.0,79,30.05,10.0,Calm,Calm,-,N/A,,Mostly Cloudy,0,2013-02-14 00:54:00
7:54 PM,39.9,36.0,86,30.06,10.0,Calm,Calm,-,N/A,,Mostly Cloudy,0,2013-02-14 01:54:00
8:54 PM,37.9,35.1,89,30.07,10.0,Calm,Calm,-,N/A,,Partly Cloudy,0,2013-02-14 02:54:00
9:54 PM,36.0,34.0,93,30.08,10.0,Calm,Calm,-,N/A,,Partly Cloudy,0,2013-02-14 03:54:00
10:54 PM,36.0,34.0,93,30.08,8.0,Calm,Calm,-,N/A,,Partly Cloudy,0,2013-02-14 04:54:00
11:54 PM,34.0,32.0,92,30.08,8.0,Calm,Calm,-,N/A,,Clear,0,2013-02-14 05:54:00